Weather in Pushkino

Russia / Republic of Crimea     45°50′44″N   34°23′18″E
temp.,
°C
wind,
m/s
gust,
m/s
humid.,
%
clouds,
%
prec.,
mm/h
press.,
hPa
HPBL,
m
27 november, sat
sat2700:00+8se61385100 0.0 1011271
03:00+9sse61478100 0.0 1008410
06:00+10sse61477100 1.1 1007395
09:00+11sse6128118 1.1 1006264
12:00+16sw8147021 0.1 10071314
15:00+16sw8136996 0.1 10061063
18:00+13ssw61378100 0.0 1007491
21:00+13sw61383100 0.0 1008417
28 november, sun
sun2800:00+12ssw51388100 0.0 1008326
03:00+11ssw4109022 0.0 1008233
06:00+10ssw34913 0.0 100950
09:00+11s358561 0.0 100997
12:00+16ssw71163100 0.0 1009924
15:00+13w4678100 0.6 1008140
18:00+11ese4995100 4.3 1008342
21:00+12se6129065 5.5 1007367
29 november, mon
mon2900:00+12sse5118699 0.0 1006224
03:00+11s41189100 0.0 1005247
06:00+11s41082100 0.0 1004165
09:00+13sse61384100 0.3 1003301
12:00+20ssw81747100 0.1 10011627
15:00+19sw12235598 0.6 9991534
18:00+16sw132274100 0.9 9991278
21:00+15sw121984100 1.4 999869
30 november, tue
tue3000:00+13wsw71475100 0.3 999856
03:00+11wsw5978100 0.3 1001548
06:00+11w4881100 0.1 1001553
09:00+9sw3580100 2.8 1003246
12:00+11sw236998 0.0 1003477
15:00+11e1166100 0.0 1000483
18:00+8ene3589100 3.2 999286
21:00+5n91290100 18.6 1000794
1 december, wed
wed100:00+6nw81159100 4.8 1003810
03:00+4wnw610665 4.8 1008667
06:00+2w510720 0.0 1009401
09:00+2sw37770 0.0 1011233
12:00+7wsw510525 0.0 10101443
15:00+9wsw6125596 0.1 10081748
18:00+6w6126490 0.1 1010568
21:00+4wsw4107032 0.1 1011262